Location: Maiden
(35.5760°N, 81.2120°W)
Time: 06:31:28
(UTC-04:00)

Cosmos 1371 Rocket - Pass Details

Date: 14 June 2018
Orbit: 754 x 789 km, 74.0° (Epoch: 20 June)

Event Time Altitude Azimuth Distance (km) Brightness Sun altitude
Rises 21:54:36 0° 345° (NNW) 3,225 8.3 -12.9°
Reaches altitude 10° 21:57:00 10° 347° (NNW) 2,292 7.3 -13.2°
Maximum altitude 22:02:11 71° 72° (ENE) 798 4.0 -14.0°
Enters shadow 22:05:44 20° 153° (SSE) 1,674 5.2 -14.5°
